DateTime,F1_A11,F1_S11,BsB_S11,BsG_S11,BsR_S11,BbsB_S11,BbsG_S11,BbsR_S11,BaB_A11,BaG_A11,BaR_A11,T_S11,U_S11,P_S11,T1_A11
2016-05-15T00:00:00Z,0000380,20000600,,,,,,,,,,25.8,04.3,0664.6,34.6
2016-05-15T00:01:00Z,0000380,20000600,,,,,,,,,,25.8,04.3,0664.7,34.6
2016-05-15T00:02:00Z,0000380,20000600,,,,,,,,,,25.8,04.3,0664.8,34.6
2016-05-15T00:03:00Z,0000380,60000600,,,,,,,,,,25.8,04.3,0664.8,34.6
2016-05-15T00:04:00Z,0000380,40000600,0005.13,0003.86,0002.19,0000.95,0000.06,0000.14,0000.77,0000.43,0000.29,25.8,04.3,0665.6,34.6
2016-05-15T00:05:00Z,0000380,00000600,0005.83,0003.55,0002.07,0000.41,0000.49,0000.36,0000.35,0000.31,0000.30,25.8,04.3,0665.5,34.6
2016-05-15T00:06:00Z,0000380,00000600,0006.59,0004.41,0002.37,0001.12,0000.54,0000.49,0000.31,0000.58,-000.05,25.8,04.3,0665.7,34.6
2016-05-15T00:07:00Z,0000380,00000600,0006.44,0004.47,0002.73,0001.01,0000.35,0000.49,0000.59,0000.37,0000.51,25.8,04.3,0665.6,34.6
2016-05-15T00:08:00Z,0000380,00000600,0006.25,0003.83,0002.46,0000.73,-000.08,0000.29,0000.62,0000.35,0000.46,25.8,04.2,0664.9,34.6
2016-05-15T00:09:00Z,0000380,00000600,0006.13,0003.93,0003.13,0000.60,0000.05,0000.43,0000.46,0000.35,0000.34,25.8,04.2,0664.4,34.6
2016-05-15T00:10:00Z,0000380,00000600,0006.33,0003.74,0002.55,0001.59,0000.41,0000.51,0000.14,0000.49,0000.15,25.8,04.1,0664.8,34.6
2016-05-15T00:11:00Z,0000380,00000600,0006.24,0003.90,0002.02,0000.87,0000.73,0000.51,0000.52,0000.26,0000.22,25.8,04.1,0664.6,34.6
2016-05-15T00:12:00Z,0000380,00000600,0006.06,0003.47,0002.43,0000.87,0000.38,0000.35,0000.56,0000.66,0000.51,25.8,04.1,0664.4,34.6
2016-05-15T00:13:00Z,0000380,00000600,0005.51,0003.60,0001.96,0000.79,0000.51,0000.24,0000.43,0000.26,0000.45,25.8,04.0,0664.5,34.6
2016-05-15T00:14:00Z,0000380,00000600,0006.53,0003.56,0002.06,0000.98,0000.08,0000.52,0000.66,0000.42,0000.10,25.8,04.1,0664.7,34.6
2016-05-15T00:15:00Z,0000380,00000600,0006.51,0003.44,0002.06,0000.98,0000.39,0000.54,0000.49,0000.58,0000.33,25.8,04.1,0664.7,34.6
2016-05-15T00:16:00Z,0000380,00000600,0005.18,0003.27,0002.23,0000.52,0000.63,0000.05,0000.24,0000.35,0000.53,25.8,04.1,0664.6,34.6
2016-05-15T00:17:00Z,0000380,00000600,0005.78,0003.59,0002.36,0000.76,0000.35,0000.30,0000.38,0000.24,0000.28,25.8,04.1,0664.9,34.6
2016-05-15T00:18:00Z,0000380,00000600,0004.91,0003.53,0001.73,0000.76,0000.21,0000.40,0000.30,0000.37,0000.19,25.8,04.1,0664.8,34.6
2016-05-15T00:19:00Z,0000380,00000600,0006.07,0003.77,0002.41,0001.00,0000.39,0000.43,0000.79,0000.40,0000.20,25.8,04.1,0664.9,34.6
2016-05-15T00:20:00Z,0000380,00000600,0006.46,0003.63,0002.42,0000.87,0000.60,0000.51,0000.46,0000.50,0000.27,25.8,04.1,0665.1,34.6
2016-05-15T00:21:00Z,0000380,00000600,0005.92,0003.11,0002.52,0001.00,0000.49,0000.52,0000.23,0000.35,0000.38,25.8,04.1,0664.9,34.6
2016-05-15T00:22:00Z,0000380,00000600,0005.80,0003.15,0002.03,0001.21,0000.27,0000.38,0000.51,0000.39,0000.34,25.8,04.1,0664.8,34.6
2016-05-15T00:23:00Z,0000380,00000600,0005.37,0002.78,0001.69,0001.05,0000.14,0000.43,0000.42,0000.44,0000.48,25.8,04.1,0664.7,34.6
2016-05-15T00:24:00Z,0000380,00000600,0005.87,0003.46,0002.26,0000.19,0000.47,0000.40,0000.17,0000.16,0000.04,25.8,04.1,0664.5,34.6
2016-05-15T00:25:00Z,0000380,00000600,0005.70,0003.38,0002.02,0001.02,0000.38,0000.03,0000.64,0000.55,0000.64,25.8,04.1,0664.7,34.6
2016-05-15T00:26:00Z,0000380,00000600,0005.28,0003.55,0002.47,0000.51,0000.43,0000.59,0000.41,0000.61,0000.07,25.8,04.2,0664.7,34.6
2016-05-15T00:27:00Z,0000380,00000600,0005.10,0003.50,0002.18,0000.40,0000.47,0000.19,0000.50,0000.36,0000.19,25.8,04.0,0665.1,34.6
2016-05-15T00:28:00Z,0000380,00000600,0006.02,0003.38,0002.08,0000.75,0000.93,0000.37,0000.65,0000.17,0000.79,25.9,04.1,0665.1,34.6
2016-05-15T00:29:00Z,0000380,00000600,0005.33,0003.23,0002.11,0001.05,0000.24,0000.41,0000.39,0000.51,0000.11,25.9,04.0,0664.8,34.6
2016-05-15T00:30:00Z,0000380,00000600,0005.03,0003.36,0002.65,0000.97,0000.79,0000.41,0000.65,0000.44,0000.24,25.9,04.1,0664.9,34.6
2016-05-15T00:31:00Z,0000380,00000600,0005.90,0003.03,0002.13,0000.65,0000.55,0000.40,0000.16,0000.22,0000.18,25.9,04.1,0664.9,34.6
2016-05-15T00:32:00Z,0000380,00000600,0005.33,0003.83,0002.32,0000.44,0000.21,0000.71,0000.54,0000.30,0000.46,25.9,04.1,0664.9,34.6
2016-05-15T00:33:00Z,0000380,00000600,0005.68,0004.38,0001.64,0001.22,0000.79,0000.30,0000.57,0000.60,0000.14,25.9,04.0,0665.1,34.6
2016-05-15T00:34:00Z,0000380,00000600,0005.97,0003.37,0002.05,0000.90,0000.76,0000.57,0000.31,0000.35,0000.14,25.9,04.1,0664.8,34.6
2016-05-15T00:35:00Z,0000380,00000600,0005.10,0003.20,0001.98,0001.00,0000.62,0000.11,0000.62,0000.16,0000.26,25.9,04.0,0665.1,34.6
2016-05-15T00:36:00Z,0000380,00000600,0004.32,0003.16,0002.34,0000.73,0000.52,0000.30,0000.44,0000.26,0000.37,25.9,04.0,0665.1,34.6
2016-05-15T00:37:00Z,0000380,00000600,0005.30,0002.79,0002.14,0000.82,0000.09,0000.43,0000.23,0000.53,0000.64,25.9,04.0,0665.1,34.6
2016-05-15T00:38:00Z,0000380,00000600,0006.09,0003.39,0002.64,0000.70,0000.73,0000.60,0000.52,0000.44,-000.14,25.9,03.9,0665.2,34.6
2016-05-15T00:39:00Z,0000380,00000600,0004.45,0003.51,0001.63,0000.78,0000.63,0000.46,0000.62,0000.12,0000.27,25.9,04.0,0665.1,34.6
2016-05-15T00:40:00Z,0000380,00000600,0005.26,0004.02,0001.93,0000.70,0000.28,0000.32,0000.20,0000.60,0000.65,25.9,04.0,0664.9,34.6
2016-05-15T00:41:00Z,0000380,00000600,0005.80,0003.22,0001.89,0000.90,0000.77,0000.13,0000.24,0000.32,0000.04,25.8,03.9,0665.2,34.6
2016-05-15T00:42:00Z,0000380,00000600,0005.04,0003.62,0001.67,0001.05,0000.60,0000.17,0000.54,0000.39,0000.37,25.9,04.0,0665.2,34.6
2016-05-15T00:43:00Z,0000380,00000600,0004.73,0003.22,0002.14,0001.14,0000.35,0000.40,0000.51,0000.50,0000.20,25.8,04.0,0664.9,34.6
2016-05-15T00:44:00Z,0000380,00000600,0006.56,0003.19,0001.99,0000.73,0000.13,0000.08,0000.11,0000.39,0000.50,25.8,04.0,0665.1,34.6
2016-05-15T00:45:00Z,0000380,00000600,0005.00,0003.59,0002.02,0000.90,0000.14,0000.19,0000.48,0000.30,-000.01,25.9,04.0,0665.2,34.6
2016-05-15T00:46:00Z,0000380,00000600,0005.37,0003.57,0001.98,0000.59,0000.33,0000.43,0000.60,0000.48,0000.51,25.9,04.0,0664.9,34.6
2016-05-15T00:47:00Z,0000380,00000600,0005.55,0003.36,0001.62,0001.14,0000.35,0000.27,0000.28,0000.20,0000.06,25.9,04.0,0665.1,34.6
2016-05-15T00:48:00Z,0000380,00000600,0004.95,0002.81,0001.61,0001.21,0000.62,0000.22,0000.24,0000.14,0000.45,25.9,04.0,0665.1,34.6
2016-05-15T00:49:00Z,0000380,00000600,0004.71,0002.78,0002.26,0000.38,0000.39,0000.46,0000.52,0000.35,-000.11,25.9,03.9,0665.0,34.6
2016-05-15T00:50:00Z,0000380,00000600,0005.12,0002.66,0001.94,0000.87,0000.17,0000.08,0000.34,0000.47,0000.44,25.9,04.0,0665.2,34.6
2016-05-15T00:51:00Z,0000380,00000600,0005.55,0002.64,0001.60,0000.51,0000.14,0000.02,0000.27,0000.35,0000.30,25.9,04.0,0665.1,34.6
2016-05-15T00:52:00Z,0000380,00000600,0004.70,0002.69,0001.71,0000.62,0000.88,0000.08,0000.38,0000.23,0000.22,25.8,04.0,0664.7,34.6
2016-05-15T00:53:00Z,0000380,00000600,0004.80,0003.27,0001.51,0001.70,0000.41,0000.13,0000.49,0000.24,-000.13,25.8,03.9,0665.2,34.6
2016-05-15T00:54:00Z,0000380,00000600,0003.81,0002.46,0001.35,0000.87,0000.52,0000.51,0000.21,0000.40,0000.59,25.8,04.0,0664.9,34.6
2016-05-15T00:55:00Z,0000380,00000600,0003.39,0002.90,0001.96,0001.13,0000.28,0000.33,0000.53,0000.20,0000.36,25.8,04.0,0665.1,34.6
2016-05-15T00:56:00Z,0000380,00000600,0003.49,0002.29,0001.24,0001.32,0000.35,0000.27,0000.10,0000.17,0000.24,25.8,03.9,0665.2,34.6
2016-05-15T00:57:00Z,0000380,40000600,,,,,,,,,,,,0665.2,34.6
2016-05-15T00:58:00Z,0000380,60000600,,,,,,,,,,25.8,04.0,0664.2,34.6
2016-05-15T00:59:00Z,0000380,20000600,,,,,,,,,,25.8,03.9,0663.9,34.6
2016-05-15T01:00:00Z,0000380,20000600,,,,,,,,,,25.8,03.9,0663.9,34.6
2016-05-15T01:01:00Z,0000380,20000600,,,,,,,,,,25.8,03.9,0663.9,34.6
2016-05-15T01:02:00Z,0000380,20000600,,,,,,,,,,25.8,03.9,0663.8,34.6
2016-05-15T01:03:00Z,0000380,60000600,,,,,,,,,,25.8,03.9,0663.7,34.6
2016-05-15T01:04:00Z,0000380,40000600,0003.66,0003.29,0001.69,0000.29,0000.55,0000.44,0000.53,0000.29,0000.22,25.8,03.9,0664.3,34.6
2016-05-15T01:05:00Z,0000380,00000600,0004.44,0003.51,0001.31,0001.08,0000.44,0000.00,0000.19,0000.26,0000.17,25.9,03.9,0664.4,34.6
2016-05-15T01:06:00Z,0000380,00000600,0005.70,0003.54,0001.63,0000.05,0000.36,0000.21,0000.13,0000.17,0000.30,25.9,03.8,0664.5,34.6
2016-05-15T01:07:00Z,0000380,00000600,0004.88,0003.13,0001.81,0000.73,0000.22,0000.35,0000.45,0000.42,0000.10,26.0,03.8,0664.7,34.6
2016-05-15T01:08:00Z,0000380,00000600,0005.11,0002.93,0001.65,-000.16,0000.47,0000.38,0000.41,0000.35,0000.35,26.0,03.7,0664.8,34.6
2016-05-15T01:09:00Z,0000380,00000600,0005.12,0003.23,0001.58,0000.95,0000.21,0000.35,0000.34,0000.43,0000.27,26.0,03.8,0664.4,34.6
2016-05-15T01:10:00Z,0000380,00000600,0005.83,0003.59,0001.89,0000.00,0000.30,0000.59,0000.34,0000.37,0000.43,26.0,03.7,0664.0,34.6
2016-05-15T01:11:00Z,0000380,00000600,0006.04,0003.43,0002.00,0000.19,0000.24,0000.10,0000.62,0000.26,-000.24,26.0,03.7,0664.1,34.6
2016-05-15T01:12:00Z,0000380,00000600,0005.10,0003.43,0001.68,0000.13,0000.51,0000.56,0000.21,0000.25,0000.67,26.0,03.7,0664.5,34.6
2016-05-15T01:13:00Z,0000380,00000600,0005.05,0003.25,0001.33,0000.75,0000.70,0000.87,0000.50,0000.53,0000.43,26.0,03.7,0664.2,34.6
2016-05-15T01:14:00Z,0000380,00000600,0005.14,0003.33,0001.85,0000.30,0000.27,0000.35,0000.59,0000.19,-000.22,26.0,03.7,0664.2,34.6
2016-05-15T01:15:00Z,0000380,00000600,0005.13,0003.19,0001.34,-000.05,0000.33,0000.32,0000.30,0000.44,0000.60,26.0,03.7,0664.7,34.7
2016-05-15T01:16:00Z,0000380,00000600,0005.34,0002.83,0001.62,0000.21,0000.28,0000.49,0000.56,0000.25,0000.19,26.0,03.7,0664.5,34.7
2016-05-15T01:17:00Z,0000380,00000600,0004.95,0003.22,0002.02,0000.67,0000.52,0000.62,0000.47,0000.36,0000.51,26.0,03.8,0664.5,34.7
2016-05-15T01:18:00Z,0000380,00000600,0004.60,0002.83,0001.47,0000.64,0000.46,0000.64,0000.23,0000.43,0000.17,26.0,03.8,0664.2,34.7
2016-05-15T01:19:00Z,0000380,00000600,0004.06,0002.87,0001.89,0000.27,0000.28,0000.72,0000.33,0000.29,0000.01,26.0,03.7,0664.6,34.7
2016-05-15T01:20:00Z,0000380,00000600,0004.71,0003.52,0001.32,0000.64,0000.35,0000.46,0000.54,0000.34,0000.53,26.0,03.7,0664.4,34.7
2016-05-15T01:21:00Z,0000380,00000600,0005.10,0003.13,0001.31,0000.78,0000.21,0000.19,0000.27,0000.22,0000.01,26.0,03.8,0664.5,34.7
2016-05-15T01:22:00Z,0000380,00000600,0005.09,0002.70,0001.77,0001.16,0000.21,0000.51,0000.50,0000.46,0000.53,26.0,03.7,0664.6,34.7
2016-05-15T01:23:00Z,0000380,00000600,0004.58,0002.84,0001.93,0000.48,0000.27,0000.17,0000.25,0000.38,0000.10,26.0,03.7,0664.7,34.7
2016-05-15T01:24:00Z,0000380,00000600,0004.85,0002.71,0001.49,0000.48,0000.00,0000.40,0000.32,0000.42,0000.05,26.0,03.7,0664.5,34.7
2016-05-15T01:25:00Z,0000380,00000600,0004.62,0003.17,0001.64,0000.97,0000.52,0000.29,0000.38,0000.11,0000.42,26.0,03.7,0664.8,34.7
2016-05-15T01:26:00Z,0000380,00000600,0004.61,0002.69,0001.96,0000.35,0000.24,0000.57,0000.40,0000.48,0000.15,26.0,03.7,0664.7,34.7
2016-05-15T01:27:00Z,0000380,00000600,0004.46,0003.15,0001.33,0001.21,0000.54,0000.22,0000.40,0000.11,0000.06,26.0,03.8,0665.2,34.7
2016-05-15T01:28:00Z,0000380,00000600,0004.92,0003.65,0001.52,0000.60,0000.62,0000.29,0000.23,0000.41,0000.68,26.0,03.8,0665.0,34.7
2016-05-15T01:29:00Z,0000380,00000600,0004.66,0003.39,0002.17,0000.51,0000.41,0000.22,0000.40,0000.46,-000.02,26.0,03.8,0665.0,34.7
2016-05-15T01:30:00Z,0000380,00000600,0004.81,0002.91,0001.30,0001.05,0000.32,0000.37,0000.15,0000.10,0000.17,26.0,03.7,0665.2,34.7
2016-05-15T01:31:00Z,0000380,00000600,0004.25,0003.67,0001.78,0000.25,0000.22,0000.73,0000.16,0000.28,0000.25,26.1,03.7,0664.8,34.7
2016-05-15T01:32:00Z,0000380,00000600,0004.75,0002.63,0001.49,0000.40,0000.33,0000.22,0000.43,0000.31,0000.32,26.1,03.7,0664.7,34.7
2016-05-15T01:33:00Z,0000380,00000600,0005.19,0002.83,0001.77,0000.87,0000.27,0000.22,0000.79,0000.31,0000.59,26.1,03.7,0664.4,34.7
2016-05-15T01:34:00Z,0000380,00000600,0005.24,0003.44,0001.55,0000.72,0000.81,0000.48,0000.16,0000.33,0000.08,26.2,03.7,0664.3,34.7
2016-05-15T01:35:00Z,0000380,00000600,0004.91,0002.54,0001.93,0000.67,0000.30,0000.38,0000.48,0000.28,0000.18,26.2,03.6,0664.6,34.7
2016-05-15T01:36:00Z,0000380,00000600,0005.49,0003.32,0001.61,0000.11,0000.14,0000.21,0000.21,0000.36,0000.14,26.2,03.7,0664.5,34.7
2016-05-15T01:37:00Z,0000380,00000600,0004.90,0003.15,0001.85,0000.52,0000.28,-000.03,0000.35,0000.25,0000.45,26.2,03.6,0664.8,34.7
2016-05-15T01:38:00Z,0000380,00000600,0004.38,0002.78,0001.47,0000.13,0000.70,0000.17,0000.61,0000.49,0000.35,26.2,03.5,0664.6,34.7
2016-05-15T01:39:00Z,0000380,00000600,0005.31,0003.16,0001.57,0000.37,0000.35,0000.27,0000.38,0000.26,-000.06,26.2,03.6,0664.5,34.7
2016-05-15T01:40:00Z,0000380,00000600,0004.47,0002.66,0001.74,0000.48,-000.06,0000.19,0000.24,0000.49,0000.55,26.3,03.5,0664.6,34.7
2016-05-15T01:41:00Z,0000380,00000600,0004.20,0003.49,0001.80,0000.38,0000.19,0000.24,0000.41,0000.24,0000.17,26.3,03.5,0664.8,34.7
2016-05-15T01:42:00Z,0000380,00000600,0004.59,0003.36,0001.56,0000.99,0000.17,0000.27,0000.34,0000.14,-000.32,26.3,03.6,0664.7,34.7
2016-05-15T01:43:00Z,0000380,00000600,0005.91,0003.06,0001.80,-000.10,0000.16,0000.41,0000.45,0000.45,0000.82,26.3,03.6,0664.8,34.7
2016-05-15T01:44:00Z,0000380,00000600,0005.20,0003.48,0001.72,0000.79,0000.11,0000.11,0000.57,0000.40,-000.11,26.2,03.6,0664.8,34.7
2016-05-15T01:45:00Z,0000380,00000600,0004.56,0002.56,0001.77,0000.22,0000.47,0000.21,0000.71,0000.28,0000.65,26.2,03.6,0664.8,34.7
2016-05-15T01:46:00Z,0000380,00000600,0005.38,0002.91,0001.42,0000.48,-000.28,0000.33,0000.35,0000.51,0000.05,26.2,03.5,0664.9,34.7
2016-05-15T01:47:00Z,0000380,00000600,0004.16,0002.83,0001.88,0000.22,0000.59,-000.02,0000.36,0000.38,0000.09,26.2,03.6,0665.0,34.7
2016-05-15T01:48:00Z,0000380,00000600,0004.71,0002.91,0001.69,0000.56,0000.57,0000.32,0000.41,0000.35,0000.53,26.2,03.5,0664.7,34.7
2016-05-15T01:49:00Z,0000380,00000600,0004.90,0003.17,0002.03,0000.68,0000.22,0000.29,0000.38,0000.21,0000.23,26.2,03.6,0664.7,34.7
2016-05-15T01:50:00Z,0000380,00000600,0005.10,0003.45,0001.92,0000.79,0000.33,0000.64,0000.32,0000.41,-000.06,26.1,03.6,0664.9,34.7
2016-05-15T01:51:00Z,0000380,00000600,0004.29,0004.03,0001.63,0000.48,0000.44,0000.03,0000.35,0000.24,0000.66,26.1,03.6,0664.8,34.7
2016-05-15T01:52:00Z,0000380,00000600,0005.16,0003.65,0001.82,0000.38,0000.47,0000.24,0000.30,0000.19,-000.30,26.1,03.6,0664.8,34.7
2016-05-15T01:53:00Z,0000380,00000600,0004.80,0003.06,0001.63,0000.83,0000.55,0000.35,0000.51,0000.42,0000.44,26.1,03.5,0665.1,34.7
2016-05-15T01:54:00Z,0000380,00000600,0004.39,0002.90,0002.29,0000.41,0000.46,0000.54,0000.35,0000.30,0000.29,26.1,03.6,0664.8,34.7
2016-05-15T01:55:00Z,0000380,00000600,0005.60,0003.49,0001.86,0000.54,0000.63,0000.49,0000.18,0000.32,0000.55,26.0,03.5,0664.5,34.7
2016-05-15T01:56:00Z,0000380,00000600,0004.94,0003.43,0001.41,0000.56,0000.32,0000.17,0000.33,0000.31,0000.09,26.1,03.6,0664.6,34.7
2016-05-15T01:57:00Z,0000380,40000600,,,,,,,,,,,,0664.4,34.7
2016-05-15T01:58:00Z,0000380,60000600,,,,,,,,,,26.0,03.8,0663.9,34.7
2016-05-15T01:59:00Z,0000380,20000600,,,,,,,,,,26.0,03.6,0663.9,34.7
2016-05-15T02:00:00Z,0000380,20000600,,,,,,,,,,26.0,03.6,0663.8,34.6
2016-05-15T02:01:00Z,0000380,20000600,,,,,,,,,,26.0,03.6,0663.8,34.6
2016-05-15T02:02:00Z,0000380,20000600,,,,,,,,,,26.0,03.6,0663.8,34.6
2016-05-15T02:03:00Z,0000380,60000600,,,,,,,,,,26.0,03.6,0663.8,34.6
2016-05-15T02:04:00Z,0000380,40000600,0004.02,0002.21,0001.89,0000.27,0000.17,0000.29,0000.18,0000.41,0000.77,26.0,03.6,0664.6,34.6
2016-05-15T02:05:00Z,0000380,00000600,0004.82,0002.71,0001.52,-000.06,0000.22,0000.13,0000.43,0000.07,0000.34,26.0,03.5,0664.7,34.6
2016-05-15T02:06:00Z,0000380,00000600,0003.59,0002.88,0001.78,0000.64,0000.59,0000.52,0000.30,0000.33,-000.07,26.0,03.6,0664.5,34.6
2016-05-15T02:07:00Z,0000380,00000600,0004.52,0002.61,0001.27,-000.21,0000.41,0000.11,0000.19,0000.25,-000.11,26.0,03.6,0664.3,34.6
2016-05-15T02:08:00Z,0000380,00000600,0004.56,0002.50,0001.29,-000.06,0000.46,0000.32,0000.54,0000.36,0000.04,26.0,03.6,0664.6,34.6
2016-05-15T02:09:00Z,0000380,00000600,0004.46,0003.05,0001.63,0000.06,0000.58,0000.48,0000.29,0000.22,0000.91,26.0,03.5,0664.8,34.6
2016-05-15T02:10:00Z,0000380,00000600,0003.94,0002.45,0001.34,0000.29,0000.28,0000.25,0000.32,0000.36,-000.20,26.0,03.5,0664.8,34.6
2016-05-15T02:11:00Z,0000380,00000600,0003.61,0002.80,0000.97,0000.33,0000.16,0000.19,0000.45,0000.47,0000.39,26.0,03.6,0664.4,34.6
2016-05-15T02:12:00Z,0000380,00000600,0004.03,0002.66,0001.21,-000.02,0000.59,0000.35,0000.27,0000.12,0000.34,26.0,03.5,0664.5,34.6
2016-05-15T02:13:00Z,0000380,00000600,0004.33,0002.75,0001.42,0000.30,0000.52,0000.72,0000.36,0000.43,0000.08,26.1,03.5,0664.4,34.6
2016-05-15T02:14:00Z,0000380,00000600,0004.71,0002.80,0001.15,0000.49,0000.57,-000.05,0000.44,0000.24,0000.67,26.1,03.5,0664.6,34.6
2016-05-15T02:15:00Z,0000380,00000600,0003.74,0002.47,0001.45,0000.83,0000.59,0000.03,-000.26,0000.16,-000.07,26.0,03.5,0664.4,34.7
2016-05-15T02:16:00Z,0000380,00000600,0004.78,0003.08,0001.70,-000.59,0000.87,0000.03,0001.01,0000.37,0000.15,26.1,03.5,0664.5,34.7
2016-05-15T02:17:00Z,0000380,00000600,0004.35,0003.33,0000.96,0000.17,0000.78,0000.81,0000.18,0000.09,0000.25,26.1,03.5,0664.5,34.7
2016-05-15T02:18:00Z,0000380,00000600,0004.31,0002.99,0001.14,0000.73,0001.08,0000.10,0000.24,0000.40,0000.34,26.1,03.5,0664.6,34.7
2016-05-15T02:19:00Z,0000380,00000600,0004.72,0003.33,0001.28,0000.19,0000.59,0000.17,0000.41,0000.38,0000.05,26.1,03.5,0664.7,34.7
2016-05-15T02:20:00Z,0000380,00000600,0004.30,0003.08,0001.35,-000.22,0000.40,0000.19,0000.11,0000.21,0000.27,26.1,03.5,0664.7,34.7
2016-05-15T02:21:00Z,0000380,00000600,0005.22,0003.20,0001.53,-000.11,0000.43,0000.29,0000.82,0000.34,0000.22,26.1,03.5,0664.9,34.7
2016-05-15T02:22:00Z,0000380,00000600,0004.50,0002.45,0001.60,0000.19,0000.43,0000.30,0000.07,0000.25,0000.35,26.1,03.5,0665.0,34.7
2016-05-15T02:23:00Z,0000380,00000600,0004.36,0002.29,0001.37,0000.60,0000.63,0000.21,0000.31,0000.37,-000.04,26.1,03.5,0665.0,34.7
2016-05-15T02:24:00Z,0000380,00000600,0004.83,0003.22,0001.54,-000.03,0000.82,0000.25,0000.44,0000.12,0000.56,26.1,03.5,0665.0,34.7
2016-05-15T02:25:00Z,0000380,00000600,0004.22,0003.38,0001.14,0000.51,0000.79,0000.27,0000.15,0000.18,-000.39,26.1,03.5,0665.1,34.7
2016-05-15T02:26:00Z,0000380,00000600,0004.07,0002.91,0001.45,-000.02,0000.62,0000.52,0000.76,0000.32,0000.37,26.1,03.6,0665.3,34.7
2016-05-15T02:27:00Z,0000380,00000600,0004.94,0003.01,0001.16,0000.62,0000.82,0000.22,0000.13,0000.30,0000.36,26.0,03.5,0665.0,34.7
2016-05-15T02:28:00Z,0000380,00000600,0004.34,0003.07,0001.45,0000.16,0000.38,0000.29,0000.41,0000.37,-000.08,26.0,03.5,0664.4,34.7
2016-05-15T02:29:00Z,0000380,00000600,0005.07,0003.24,0001.47,0000.76,0000.52,0000.22,0000.25,0000.10,0000.44,26.0,03.5,0664.4,34.7
2016-05-15T02:30:00Z,0000380,00000600,0004.64,0003.28,0001.41,0000.65,0000.62,0000.43,0000.47,0000.37,0000.04,26.0,03.5,0664.3,34.5
2016-05-15T02:31:00Z,0000380,00000600,0005.03,0002.86,0001.54,0000.59,0000.60,0000.19,0000.01,0000.31,0000.66,26.0,03.5,0664.3,34.5
2016-05-15T02:32:00Z,0000380,00000600,0004.56,0002.86,0001.36,-000.10,0000.59,0000.11,-000.11,-000.02,0000.21,26.0,03.5,0664.3,34.5
2016-05-15T02:33:00Z,0000380,00000600,0004.43,0002.49,0001.31,0000.14,0000.52,0000.17,0000.35,0000.34,0000.15,26.0,03.5,0664.6,34.5
2016-05-15T02:34:00Z,0000380,00000600,0004.46,0003.25,0001.49,0000.59,0000.51,0000.52,0000.48,0000.42,0000.12,26.0,03.5,0664.6,34.5
2016-05-15T02:35:00Z,0000380,00000600,0004.62,0003.28,0001.33,0000.27,0000.68,0000.54,0000.06,0000.24,0000.66,26.0,03.5,0664.3,34.5
2016-05-15T02:36:00Z,0000380,00000600,0004.84,0003.23,0001.40,0000.16,0000.73,0000.14,0000.58,0000.61,-000.18,26.0,03.5,0664.2,34.5
2016-05-15T02:37:00Z,0000380,00000600,0004.02,0002.83,0001.92,0000.51,0000.84,0000.19,0000.08,0000.20,0000.08,26.0,03.5,0664.2,34.5
2016-05-15T02:38:00Z,0000380,00000600,0005.11,0003.74,0001.72,-000.22,0000.11,0000.56,0000.62,0000.31,0000.64,26.0,03.5,0664.3,34.5
2016-05-15T02:39:00Z,0000380,00000600,0004.36,0003.39,0001.23,0000.38,0000.70,0000.32,0000.77,0000.42,0000.19,26.0,03.5,0664.9,34.5
2016-05-15T02:40:00Z,0000380,00000600,0004.34,0003.57,0001.78,0000.19,0000.60,0000.11,0000.35,0000.52,0000.06,26.0,03.5,0664.5,34.5
2016-05-15T02:41:00Z,0000380,00000600,0005.11,0002.94,0001.74,0000.81,0000.35,0000.08,0000.40,0000.28,0000.24,26.0,03.5,0664.5,34.5
2016-05-15T02:42:00Z,0000380,00000600,0004.91,0003.39,0001.59,0000.37,0000.73,0000.16,0000.42,0000.11,0000.77,26.0,03.4,0664.6,34.5
2016-05-15T02:43:00Z,0000380,00000600,0005.23,0002.85,0001.26,-000.13,0000.65,0000.30,0000.26,0000.43,0000.24,26.0,03.4,0664.6,34.5
2016-05-15T02:44:00Z,0000380,00000600,0004.43,0002.87,0001.43,-000.37,0000.35,0000.41,0000.57,0000.33,0000.04,26.0,03.5,0664.4,34.5
2016-05-15T02:45:00Z,0000380,00000600,0004.94,0003.88,0001.53,0001.03,0000.62,0000.14,0000.27,0000.19,-000.02,26.0,03.5,0664.5,34.6
2016-05-15T02:46:00Z,0000380,00000600,0004.26,0003.05,0001.38,-000.02,0000.52,0000.00,0000.44,0000.36,0000.14,26.0,03.5,0664.4,34.6
2016-05-15T02:47:00Z,0000380,00000600,0005.89,0003.28,0001.38,0000.37,0000.33,0000.40,0000.32,0000.21,0000.51,26.0,03.4,0664.4,34.6
2016-05-15T02:48:00Z,0000380,00000600,0005.88,0003.42,0001.94,0000.57,0000.65,0000.64,0000.41,0000.36,0000.25,26.0,03.5,0664.4,34.6
2016-05-15T02:49:00Z,0000380,00000600,0005.07,0003.45,0001.54,0000.43,0000.52,0000.13,0000.43,0000.21,0000.21,26.0,03.5,0664.1,34.6
2016-05-15T02:50:00Z,0000380,00000600,0004.27,0002.54,0001.59,0000.14,0000.11,0000.67,0000.21,0000.64,0000.42,25.9,03.4,0664.3,34.6
2016-05-15T02:51:00Z,0000380,00000600,0005.11,0002.80,0001.60,0000.60,0000.46,-000.10,0000.33,0000.08,-000.00,25.9,03.5,0664.5,34.6
2016-05-15T02:52:00Z,0000380,00000600,0004.57,0003.47,0001.53,-000.30,0000.82,-000.02,0000.49,0000.31,0000.25,25.8,03.4,0664.6,34.6
2016-05-15T02:53:00Z,0000380,00000600,0004.84,0003.08,0001.18,-000.13,0000.38,0000.16,0000.29,0000.37,0000.23,25.8,03.4,0664.1,34.6
2016-05-15T02:54:00Z,0000380,00000600,0005.58,0003.12,0000.93,0000.95,0000.46,0000.10,0000.27,0000.26,0000.23,25.8,03.5,0664.5,34.6
2016-05-15T02:55:00Z,0000380,00000600,0005.08,0002.87,0001.32,-000.44,0000.28,0000.54,0000.23,0000.36,0000.41,25.8,03.5,0664.3,34.6
2016-05-15T02:56:00Z,0000380,00000600,0005.78,0003.22,0001.46,-000.14,0000.52,0000.11,0000.38,0000.39,-000.10,25.8,03.5,0664.5,34.6
2016-05-15T02:57:00Z,0000380,40000600,,,,,,,,,,,,0664.4,34.6
2016-05-15T02:58:00Z,0000380,60000600,,,,,,,,,,25.8,03.6,0663.8,34.6
2016-05-15T02:59:00Z,0000380,20000600,,,,,,,,,,25.7,03.6,0663.8,34.6
2016-05-15T03:00:00Z,0000380,20000600,,,,,,,,,,25.7,03.6,0663.7,34.6
2016-05-15T03:01:00Z,0000380,20000600,,,,,,,,,,25.7,03.6,0663.7,34.6
2016-05-15T03:02:00Z,0000380,20000600,,,,,,,,,,25.7,03.6,0663.7,34.6
2016-05-15T03:03:00Z,0000380,60000600,,,,,,,,,,25.7,03.6,0663.7,34.6
2016-05-15T03:04:00Z,0000380,40000600,0004.33,0003.51,0001.53,0001.00,0000.19,-000.08,0000.58,0000.31,0000.18,25.8,03.6,0664.9,34.6
2016-05-15T03:05:00Z,0000380,00000600,0005.11,0003.07,0001.57,0000.71,0000.13,0000.73,0000.07,0000.18,0000.72,25.8,03.5,0664.9,34.6
2016-05-15T03:06:00Z,0000380,00000600,0005.04,0002.97,0001.83,0000.56,0000.17,0000.41,0000.40,0000.52,-000.15,25.8,03.5,0665.0,34.6
2016-05-15T03:07:00Z,0000380,00000600,0004.86,0003.25,0001.94,0000.27,0000.51,0000.22,0000.33,0000.29,0000.54,25.8,03.6,0664.8,34.6
2016-05-15T03:08:00Z,0000380,00000600,0004.75,0003.47,0002.08,0000.92,0000.08,0000.30,0000.43,0000.32,0000.20,25.8,03.6,0664.9,34.6
2016-05-15T03:09:00Z,0000380,00000600,0005.42,0002.91,0001.81,0000.54,0000.30,0000.21,0000.52,0000.46,0000.40,25.8,03.5,0664.8,34.6
2016-05-15T03:10:00Z,0000380,00000600,0005.82,0003.00,0001.85,0000.51,-000.03,0000.19,0000.51,0000.42,0000.27,25.9,03.6,0664.9,34.6
2016-05-15T03:11:00Z,0000380,00000600,0004.36,0003.20,0001.68,0000.24,0000.43,0000.40,0000.29,0000.30,0000.23,25.9,03.6,0665.0,34.6
2016-05-15T03:12:00Z,0000380,00000600,0004.24,0003.06,0001.88,0000.36,0000.22,0000.03,0000.41,0000.25,0000.17,25.8,03.5,0664.9,34.6